Regional Weather Roundup
Issued by NWS

Home | Current Version | Previous Version | Text Only | Print | Product List | Glossary Off
Versions: 1 2 3 4 5 6 7 8 9 10 11 12 13 14 15 16 17 18 19 20 21 22 23 24 25 26 27 28 29 30 31 32 33 34 35 36 37 38 39 40 41 42 43 44 45 46 47 48 49 50

000
ASUS43 KMPX 011110
RWRMN
WEATHER ROUNDUP FOR MINNESOTA
NATIONAL WEATHER SERVICE TWIN CITIES/CHANHASSEN MN
600 AM CDT SAT NOV 01 2014


NOTE: "FAIR" INDICATES FEW OR NO CLOUDS BELOW 12,000 FEET WITH NO
SIGNIFICANT WEATHER AND/OR OBSTRUCTIONS TO VISIBILITY. N/A MEANS
CURRENT SKY AND/OR WEATHER CONDITIONS ARE NOT AVAILABLE.

MNZ060>063-068>070-011200-
   Twin Cities Metro

CITY           SKY/WX    TMP DP  RH WIND       PRES   REMARKS
TWIN CITIES    CLEAR     24  17  74 S7        30.45F WCI  16
ST PAUL        CLEAR     23  21  92 SE5       30.47F WCI  17
CRYSTAL        CLEAR     25  17  72 S7        30.43F WCI  17
BLAINE         CLEAR     25  21  86 S5        30.44S WCI  19
LAKEVILLE      PTCLDY    14  12  92 CALM      30.44F
EDEN PRAIRIE   CLEAR     24  18  77 SE7       30.43F WCI  16
SOUTH ST PAUL  CLEAR     22  19  88 CALM      30.46S
LAKE ELMO      FAIR      19  18  93 CALM      30.46S
$$
MNZ001>005-007-008-013>017-022>024-027-028-011200-
   Northwest Minnesota

CITY           SKY/WX    TMP DP  RH WIND       PRES   REMARKS
BEMIDJI        MOCLDY    29  16  57 S12       30.29F WCI  20
HALLOCK        PTCLDY    32  19  59 S18G25    30.18S WCI  20
ROSEAU         CLOUDY    32  19  59 S14       30.23F WCI  22
WARROAD        CLOUDY    34  19  55 S9        30.25F WCI  26
THIEF RVR FALL CLOUDY    32  19  59 S13       30.23S WCI  22
CROOKSTON      MOCLDY    34  18  51 S25G33    30.22F WCI  21
FOSSTON        CLOUDY    28  18  64 S14       30.25F WCI  17
DETROIT LAKES  CLOUDY    32  21  64 S15       30.27F WCI  22
MOORHEAD       PTCLDY    30  19  64 S23G30    30.25F WCI  17
PARK RAPIDS    MOCLDY    25  17  72 SE9       30.31F WCI  15
MAHNOMEN       FAIR      30  19  62 S13G18    30.25F WCI  20
$$
MNZ006-009>011-018-025>026-011200-
   North Central Minnesota

CITY           SKY/WX    TMP DP  RH WIND       PRES   REMARKS
BAUDETTE       CLOUDY    29  19  66 S7        30.28S WCI  22
FLAG ISLAND    CLOUDY    36  25  64 S21       30.24F
INTL FALLS     CLOUDY    24  18  77 SE6       30.32F WCI  17
WASKISH        CLOUDY    28  19  69 CALM      30.30S
BIG FORK       CLOUDY    30  19  64 S7        30.33F WCI  23
LONGVILLE      PTCLDY    28  19  69 S7        30.33F WCI  21
GRAND RAPIDS   CLOUDY    23  18  80 CALM      30.36S
CRANE LAKE     CLEAR     14  12  92 CALM      30.38F
ORR            PTCLDY    21  14  73 CALM      30.33F
COOK           PTCLDY    16  14  93 CALM      30.37S
WALKER         FAIR      28  15  58 S8        30.32S WCI  20
$$
MNZ012-019>021-037-011200-
   Northeast Minnesota

CITY           SKY/WX    TMP DP  RH WIND       PRES   REMARKS
DULUTH         CLEAR     25  13  60 SW7       30.40F WCI  17
ELY            PTCLDY    12  10  92 S3        30.38S
HIBBING        PTCLDY    13   8  81 CALM      30.38S
EVELETH        CLEAR     12  10  92 CALM      30.39S
DULUTH HARBOR  CLEAR     27  18  69 CALM      30.46S
TWO HARBORS    CLEAR     19  14  79 CALM      30.41S
SILVER BAY     PTCLDY    16  12  86 CALM      30.41S
GRAND MARAIS     N/A     21  17  84 NW6       30.44S WCI  13
G MARAIS ARPRT CLEAR      9   5  85 CALM      30.39S
$$
MNZ029>031-032-039>041-046>048-054>057-064-011200-
   West Central Minnesota

CITY           SKY/WX    TMP DP  RH WIND       PRES   REMARKS
FERGUS FALLS   MOCLDY    28  16  59 S18       30.32F WCI  16
WHEATON        CLEAR     25  18  74 SE16      30.30F WCI  12
MORRIS         PTCLDY    27  19  74 S13       30.32S WCI  16
ALEXANDRIA     PTCLDY    27  18  69 S10       30.34F WCI  17
ELBOW LAKE     FAIR      27  19  69 S17       30.30F WCI  15
WADENA         PTCLDY    27  18  69 S9        30.32F WCI  17
GLENWOOD       PTCLDY    27  19  74 S14       30.35S WCI  15
APPLETON       PTCLDY    28  19  69 S12G17    30.33F WCI  18
BENSON         PTCLDY    27  18  69 S14       30.35S WCI  15
ORTONVILLE     CLEAR     25  18  74 SE8       30.30F WCI  16
MADISON        PTCLDY    27  21  80 SE10      30.33S WCI  17
WILLMAR        FAIR      25  18  74 S8        30.38F WCI  16
$$
MNZ033>034-036-042>043-049>051-058-059-011200-
   Central Minnesota

CITY           SKY/WX    TMP DP  RH WIND       PRES   REMARKS
ST CLOUD       PTCLDY    21  15  78 SE7       30.40F WCI  12
SAUK CENTRE    FAIR      22  17  79 SE8       30.37F WCI  13
PAYNESVILLE    CLEAR     24  18  78 E7        30.39S WCI  15
AITKIN         PTCLDY    21  18  86 S3        30.36F
PINE RIVER     CLEAR     25  19  80 S7        30.37F WCI  17
BRAINERD       PTCLDY    24  17  74 S8        30.37F WCI  15
STAPLES        PTCLDY    25  18  74 S3        30.35S
LONG PRAIRIE   FAIR      25  19  80 SE12      30.36F WCI  14
LITTLE FALLS   CLEAR     23  18  80 SE5       30.38F WCI  17
LITCHFIELD     PTCLDY    28  19  69 S6        30.40F WCI  22
BUFFALO        CLEAR     24  17  76 SE3       30.44S
MAPLE LAKE     CLEAR     26  19  77 SE3       30.42F
$$
MNZ037-044-045-052-053-011200-
   East Central Minnesota

CITY           SKY/WX    TMP DP  RH WIND       PRES   REMARKS
PRINCETON      PTCLDY    19  18  93 CALM      30.42S
MORA           PTCLDY    18  14  86 CALM      30.44S
CAMBRIDGE      PTCLDY    25  16  68 S3        30.42S
RUSH CITY      CLEAR     20  17  86 CALM      30.44S
MOOSE LAKE     PTCLDY    18  16  93 CALM      30.41S
HINCKLEY       FAIR      21  19  93 CALM      30.43S
CLOQUET        CLEAR     23  14  68 CALM      30.41S
MCGREGOR       PTCLDY    25  19  80 S7        30.39F WCI  17
$$
MNZ071>073-080-081-089-090-097-098-011200-
   Southwest Minnesota

CITY           SKY/WX    TMP DP  RH WIND       PRES   REMARKS
MONTEVIDEO     PTCLDY    27  19  74 S13       30.36F WCI  16
GRANITE FALLS  PTCLDY    25  18  74 SE10      30.38F WCI  14
CANBY          CLEAR     26  19  76 SE8       30.33F WCI  18
MARSHALL       CLEAR     27  16  63 S17       30.33F WCI  14
REDWOOD FALLS  PTCLDY    21  15  78 S8        30.39F WCI  11
OLIVIA         PTCLDY    23  18  80 SE7       30.38F WCI  15
PIPESTONE      CLEAR     25  18  74 S16       30.32F WCI  12
WINDOM         MOCLDY    28  19  69 S10G16    30.38F WCI  19
WORTHINGTON    PTCLDY    25  18  74 S13       30.37F WCI  13
JACKSON        PTCLDY    28  18  64 S9        30.39F WCI  20
TRACY          PTCLDY    27  18  68 S12G21    30.35F WCI  17
SLAYTON        PTCLDY    23  18  80 S12       30.35F WCI  12
$$
MNZ065>067-074>077-082>085-091>093-011200-
   South Central Minnesota

CITY           SKY/WX    TMP DP  RH WIND       PRES   REMARKS
MANKATO        PTCLDY    23  14  68 S8        30.43F WCI  14
NEW ULM        PTCLDY    21  16  79 SE6       30.41F WCI  14
ST JAMES       PTCLDY    21  16  79 SE6       30.42F WCI  14
FAIRMONT       PTCLDY    19  12  73 S8        30.41F WCI   9
GLENCOE        PTCLDY    23  18  82 SE5       30.42F WCI  17
FARIBAULT      CLEAR     19  16  86 CALM      30.44S
OWATONNA       PTCLDY    21  16  79 CALM      30.44R
WASECA         CLEAR     19  12  73 SE5       30.45S WCI  13
ALBERT LEA     CLEAR     25  18  74 S5        30.43S WCI  19
$$
MNZ078>079-086>088-094>096-011200-
   Southeast Minnesota

CITY           SKY/WX    TMP DP  RH WIND       PRES   REMARKS
ROCHESTER      CLEAR     19  15  84 S6        30.45S WCI  11
RED WING       CLEAR     18  16  93 CALM      30.47S
STANTON        PTCLDY    18  15  87 CALM      30.44F
DODGE CENTER   PTCLDY    19  18  93 SE3       30.43F
WINONA         CLEAR     23  21  93 CALM      30.50R
AUSTIN         PTCLDY    19  16  86 SE5       30.44S WCI  13
PRESTON        CLEAR     21  17  84 S3        30.46R
$$
ABBREVIATIONS USED IN REMARKS
   TC - TEMPERATURES IN CELSIUS
  WCI - WIND CHILL INDEX
   HX - HEAT INDEX
  VSB - VISIBILITY
$$



USA.gov is the U.S. government's official web portal to all federal, state and local government web resources and services.